Time,TemperatureF,DewpointF,PressureIn,WindDirection,WindDirectionDegrees,WindSpeedMPH,WindSpeedGustMPH,Humidity,HourlyPrecipIn,Conditions,Clouds,dailyrainin,SoftwareType,DateUTC
2013-07-21 00:07:00,68.7,66.0,29.76,NW,314,0.0,0.0,90,0.00,,,0.00,weatherlink.com 1.10,2013-07-21 04:07:00,
2013-07-21 00:22:00,67.9,65.0,29.77,NW,314,0.0,0.0,91,0.00,,,0.00,weatherlink.com 1.10,2013-07-21 04:22:00,
2013-07-21 00:37:00,67.3,65.0,29.77,NW,313,0.0,0.0,93,0.00,,,0.00,weatherlink.com 1.10,2013-07-21 04:37:00,
2013-07-21 00:52:00,67.0,65.0,29.77,NW,314,0.0,0.0,94,0.00,,,0.00,weatherlink.com 1.10,2013-07-21 04:52:00,
2013-07-21 01:07:00,66.7,65.0,29.79,NW,313,0.0,0.0,94,0.00,,,0.00,weatherlink.com 1.10,2013-07-21 05:07:00,
2013-07-21 01:22:00,66.4,65.0,29.78,NW,314,0.0,0.0,95,0.00,,,0.00,weatherlink.com 1.10,2013-07-21 05:22:00,
2013-07-21 01:37:00,66.0,65.0,29.79,NW,314,0.0,0.0,95,0.00,,,0.00,weatherlink.com 1.10,2013-07-21 05:37:00,
2013-07-21 01:53:00,65.4,64.0,29.79,NW,314,0.0,0.0,96,0.00,,,0.00,weatherlink.com 1.10,2013-07-21 05:53:00,
2013-07-21 02:07:00,65.1,64.0,29.79,NW,314,0.0,0.0,97,0.00,,,0.00,weatherlink.com 1.10,2013-07-21 06:07:00,
2013-07-21 02:22:00,65.0,64.0,29.79,NW,314,0.0,0.0,97,0.00,,,0.00,weatherlink.com 1.10,2013-07-21 06:22:00,
2013-07-21 02:37:00,64.7,64.0,29.79,NW,313,0.0,0.0,97,0.00,,,0.00,weatherlink.com 1.10,2013-07-21 06:37:00,
2013-07-21 02:52:00,64.4,64.0,29.80,NW,314,0.0,1.0,97,0.00,,,0.00,weatherlink.com 1.10,2013-07-21 06:52:00,
2013-07-21 03:07:00,64.1,63.0,29.80,NW,314,0.0,0.0,97,0.00,,,0.00,weatherlink.com 1.10,2013-07-21 07:07:00,
2013-07-21 03:22:00,64.1,64.0,29.80,NNW,333,0.0,1.0,98,0.00,,,0.00,weatherlink.com 1.10,2013-07-21 07:22:00,
2013-07-21 03:37:00,63.6,63.0,29.81,NNW,332,0.0,0.0,98,0.00,,,0.00,weatherlink.com 1.10,2013-07-21 07:37:00,
2013-07-21 03:52:00,63.5,63.0,29.81,NNW,332,0.0,0.0,98,0.00,,,0.00,weatherlink.com 1.10,2013-07-21 07:52:00,
2013-07-21 04:07:00,63.4,63.0,29.82,NNW,331,0.0,1.0,98,0.00,,,0.00,weatherlink.com 1.10,2013-07-21 08:07:00,
2013-07-21 04:22:00,63.2,63.0,29.82,NNW,332,0.0,0.0,98,0.00,,,0.00,weatherlink.com 1.10,2013-07-21 08:22:00,
2013-07-21 04:37:00,63.1,63.0,29.82,NNW,333,0.0,0.0,99,0.00,,,0.00,weatherlink.com 1.10,2013-07-21 08:37:00,
2013-07-21 04:52:00,63.2,63.0,29.82,NNW,333,0.0,0.0,99,0.00,,,0.00,weatherlink.com 1.10,2013-07-21 08:52:00,
2013-07-21 05:07:00,63.2,63.0,29.83,NNW,333,0.0,0.0,99,0.00,,,0.00,weatherlink.com 1.10,2013-07-21 09:07:00,
2013-07-21 05:22:00,63.2,63.0,29.83,NNW,333,0.0,0.0,99,0.00,,,0.00,weatherlink.com 1.10,2013-07-21 09:22:00,
2013-07-21 05:37:00,63.4,63.0,29.84,NNW,333,0.0,0.0,99,0.00,,,0.00,weatherlink.com 1.10,2013-07-21 09:37:00,
2013-07-21 05:52:00,63.4,63.0,29.85,NNW,333,0.0,1.0,99,0.00,,,0.00,weatherlink.com 1.10,2013-07-21 09:52:00,
2013-07-21 06:08:00,63.5,63.0,29.85,NNW,333,0.0,0.0,99,0.00,,,0.00,weatherlink.com 1.10,2013-07-21 10:08:00,
2013-07-21 06:23:00,64.0,64.0,29.86,NNW,333,0.0,1.0,99,0.00,,,0.00,weatherlink.com 1.10,2013-07-21 10:23:00,
2013-07-21 06:38:00,64.3,64.0,29.86,NNW,333,0.0,0.0,99,0.00,,,0.00,weatherlink.com 1.10,2013-07-21 10:38:00,
2013-07-21 06:53:00,64.0,64.0,29.87,NNW,333,0.0,0.0,98,0.00,,,0.00,weatherlink.com 1.10,2013-07-21 10:53:00,
2013-07-21 07:08:00,64.0,64.0,29.88,NNW,333,0.0,0.0,98,0.00,,,0.00,weatherlink.com 1.10,2013-07-21 11:08:00,
2013-07-21 07:23:00,64.5,64.0,29.88,NNW,333,0.0,0.0,98,0.00,,,0.00,weatherlink.com 1.10,2013-07-21 11:23:00,
2013-07-21 07:38:00,65.3,65.0,29.88,NNW,333,0.0,0.0,98,0.00,,,0.00,weatherlink.com 1.10,2013-07-21 11:38:00,
2013-07-21 07:53:00,66.6,66.0,29.89,NNW,333,0.0,0.0,97,0.00,,,0.00,weatherlink.com 1.10,2013-07-21 11:53:00,
2013-07-21 08:08:00,67.2,65.0,29.89,NNW,333,0.0,0.0,93,0.00,,,0.00,weatherlink.com 1.10,2013-07-21 12:08:00,
2013-07-21 08:23:00,68.0,65.0,29.90,NNW,333,0.0,0.0,91,0.00,,,0.00,weatherlink.com 1.10,2013-07-21 12:23:00,
2013-07-21 08:38:00,69.0,65.0,29.90,SSW,193,0.0,1.0,87,0.00,,,0.00,weatherlink.com 1.10,2013-07-21 12:38:00,
2013-07-21 08:53:00,69.9,65.0,29.90,South,187,0.0,1.0,85,0.00,,,0.00,weatherlink.com 1.10,2013-07-21 12:53:00,
2013-07-21 09:08:00,70.8,65.0,29.90,South,181,1.0,2.0,82,0.00,,,0.00,weatherlink.com 1.10,2013-07-21 13:08:00,
2013-07-21 09:23:00,71.7,66.0,29.90,SE,127,0.0,1.0,81,0.00,,,0.00,weatherlink.com 1.10,2013-07-21 13:23:00,
2013-07-21 09:38:00,72.5,66.0,29.90,SSW,203,1.0,3.0,79,0.00,,,0.00,weatherlink.com 1.10,2013-07-21 13:38:00,
2013-07-21 09:53:00,73.5,66.0,29.90,South,188,0.0,1.0,78,0.00,,,0.00,weatherlink.com 1.10,2013-07-21 13:53:00,
2013-07-21 10:08:00,74.8,64.0,29.90,South,174,0.0,2.0,70,0.00,,,0.00,weatherlink.com 1.10,2013-07-21 14:08:00,
2013-07-21 10:23:00,75.9,67.0,29.91,SSW,200,2.0,2.0,73,0.00,,,0.00,weatherlink.com 1.10,2013-07-21 14:23:00,
2013-07-21 10:38:00,75.3,67.0,29.91,SSE,153,0.0,1.0,76,0.00,,,0.00,weatherlink.com 1.10,2013-07-21 14:38:00,
2013-07-21 10:53:00,75.3,67.0,29.91,South,177,0.0,2.0,74,0.00,,,0.00,weatherlink.com 1.10,2013-07-21 14:53:00,
2013-07-21 11:08:00,75.3,66.0,29.91,South,179,0.0,1.0,72,0.00,,,0.00,weatherlink.com 1.10,2013-07-21 15:08:00,
2013-07-21 11:23:00,75.7,66.0,29.91,SSE,166,0.0,2.0,71,0.00,,,0.00,weatherlink.com 1.10,2013-07-21 15:23:00,
2013-07-21 11:38:00,76.7,66.0,29.92,SSE,154,0.0,1.0,70,0.00,,,0.00,weatherlink.com 1.10,2013-07-21 15:38:00,
2013-07-21 11:53:00,76.6,67.0,29.92,SSE,165,0.0,1.0,72,0.00,,,0.00,weatherlink.com 1.10,2013-07-21 15:53:00,
2013-07-21 12:08:00,75.8,65.0,29.92,SSE,158,0.0,1.0,70,0.00,,,0.00,weatherlink.com 1.10,2013-07-21 16:08:00,
2013-07-21 12:23:00,75.1,66.0,29.92,SSE,160,0.0,1.0,74,0.00,,,0.00,weatherlink.com 1.10,2013-07-21 16:23:00,
2013-07-21 12:38:00,76.2,67.0,29.92,SSE,163,0.0,1.0,72,0.00,,,0.00,weatherlink.com 1.10,2013-07-21 16:38:00,
2013-07-21 12:53:00,77.1,67.0,29.92,SSE,160,0.0,1.0,71,0.00,,,0.00,weatherlink.com 1.10,2013-07-21 16:53:00,
2013-07-21 13:08:00,77.1,66.0,29.91,SW,225,0.0,1.0,69,0.00,,,0.00,weatherlink.com 1.10,2013-07-21 17:08:00,
2013-07-21 13:23:00,78.0,67.0,29.91,SW,214,0.0,2.0,69,0.00,,,0.00,weatherlink.com 1.10,2013-07-21 17:23:00,
2013-07-21 13:38:00,76.7,65.0,29.91,SE,132,0.0,1.0,68,0.00,,,0.00,weatherlink.com 1.10,2013-07-21 17:38:00,
2013-07-21 13:53:00,75.8,67.0,29.91,SE,135,0.0,1.0,74,0.00,,,0.00,weatherlink.com 1.10,2013-07-21 17:53:00,
2013-07-21 14:08:00,77.8,67.0,29.91,SW,235,0.0,3.0,70,0.00,,,0.00,weatherlink.com 1.10,2013-07-21 18:08:00,
2013-07-21 14:23:00,77.9,67.0,29.91,SSE,163,0.0,2.0,70,0.00,,,0.00,weatherlink.com 1.10,2013-07-21 18:23:00,
2013-07-21 14:38:00,78.2,67.0,29.91,SSE,158,1.0,4.0,68,0.00,,,0.00,weatherlink.com 1.10,2013-07-21 18:38:00,
2013-07-21 14:53:00,78.3,67.0,29.90,SE,146,0.0,3.0,68,0.00,,,0.00,weatherlink.com 1.10,2013-07-21 18:53:00,
2013-07-21 15:08:00,77.5,67.0,29.91,South,181,0.0,2.0,70,0.00,,,0.00,weatherlink.com 1.10,2013-07-21 19:08:00,
2013-07-21 15:23:00,77.4,68.0,29.91,SSE,149,2.0,2.0,72,0.00,,,0.00,weatherlink.com 1.10,2013-07-21 19:23:00,
2013-07-21 15:38:00,75.1,68.0,29.91,East,87,0.0,1.0,79,0.00,,,0.00,weatherlink.com 1.10,2013-07-21 19:38:00,
2013-07-21 15:53:00,75.1,68.0,29.91,SSE,148,1.0,2.0,78,0.00,,,0.00,weatherlink.com 1.10,2013-07-21 19:53:00,
2013-07-21 16:08:00,75.4,68.0,29.91,SE,138,0.0,2.0,77,0.00,,,0.00,weatherlink.com 1.10,2013-07-21 20:08:00,
2013-07-21 16:23:00,75.1,67.0,29.91,SSE,163,1.0,2.0,75,0.00,,,0.00,weatherlink.com 1.10,2013-07-21 20:23:00,
2013-07-21 16:38:00,75.3,66.0,29.91,SE,141,1.0,3.0,72,0.00,,,0.00,weatherlink.com 1.10,2013-07-21 20:38:00,
2013-07-21 16:53:00,75.0,66.0,29.90,SW,222,1.0,2.0,73,0.00,,,0.00,weatherlink.com 1.10,2013-07-21 20:53:00,
2013-07-21 17:08:00,74.5,66.0,29.90,SSW,203,1.0,2.0,75,0.00,,,0.00,weatherlink.com 1.10,2013-07-21 21:08:00,
2013-07-21 17:23:00,74.0,66.0,29.90,SSW,193,1.0,1.0,76,0.00,,,0.00,weatherlink.com 1.10,2013-07-21 21:23:00,
2013-07-21 17:38:00,74.2,66.0,29.90,SE,142,0.0,2.0,76,0.00,,,0.00,weatherlink.com 1.10,2013-07-21 21:38:00,
2013-07-21 17:53:00,74.2,66.0,29.89,SW,236,0.0,2.0,76,0.00,,,0.00,weatherlink.com 1.10,2013-07-21 21:53:00,
2013-07-21 18:08:00,73.9,66.0,29.90,SSE,160,0.0,2.0,77,0.00,,,0.00,weatherlink.com 1.10,2013-07-21 22:08:00,
2013-07-21 18:23:00,73.5,66.0,29.90,SW,219,0.0,2.0,78,0.00,,,0.00,weatherlink.com 1.10,2013-07-21 22:23:00,
2013-07-21 18:38:00,72.6,67.0,29.90,SE,138,0.0,1.0,82,0.00,,,0.00,weatherlink.com 1.10,2013-07-21 22:38:00,
2013-07-21 18:53:00,71.7,66.0,29.90,SE,140,0.0,0.0,82,0.00,,,0.00,weatherlink.com 1.10,2013-07-21 22:53:00,
2013-07-21 19:08:00,71.4,66.0,29.91,SE,139,0.0,0.0,84,0.00,,,0.00,weatherlink.com 1.10,2013-07-21 23:08:00,
2013-07-21 19:24:00,70.9,67.0,29.90,SSW,201,0.0,0.0,87,0.00,,,0.00,weatherlink.com 1.10,2013-07-21 23:24:00,
2013-07-21 19:39:00,70.3,67.0,29.91,SSW,200,0.0,0.0,89,0.00,,,0.00,weatherlink.com 1.10,2013-07-21 23:39:00,
2013-07-21 19:54:00,69.6,66.0,29.91,SSW,201,0.0,0.0,89,0.00,,,0.00,weatherlink.com 1.10,2013-07-21 23:54:00,
2013-07-21 20:09:00,68.8,66.0,29.91,SSW,201,0.0,0.0,91,0.00,,,0.00,weatherlink.com 1.10,2013-07-22 00:09:00,
2013-07-21 20:24:00,68.0,66.0,29.91,SSW,201,0.0,0.0,92,0.00,,,0.00,weatherlink.com 1.10,2013-07-22 00:24:00,
2013-07-21 20:39:00,67.4,65.0,29.92,SSW,203,0.0,0.0,93,0.00,,,0.00,weatherlink.com 1.10,2013-07-22 00:39:00,
2013-07-21 20:54:00,67.0,65.0,29.93,SSW,203,0.0,0.0,93,0.00,,,0.00,weatherlink.com 1.10,2013-07-22 00:54:00,
2013-07-21 21:09:00,66.6,65.0,29.93,SSW,203,0.0,0.0,94,0.00,,,0.00,weatherlink.com 1.10,2013-07-22 01:09:00,
2013-07-21 21:24:00,66.3,65.0,29.93,SSW,203,0.0,0.0,95,0.00,,,0.00,weatherlink.com 1.10,2013-07-22 01:24:00,
2013-07-21 21:39:00,66.1,65.0,29.94,SSW,203,0.0,0.0,95,0.00,,,0.00,weatherlink.com 1.10,2013-07-22 01:39:00,
2013-07-21 21:54:00,66.0,65.0,29.94,SSW,203,0.0,0.0,95,0.00,,,0.00,weatherlink.com 1.10,2013-07-22 01:54:00,
2013-07-21 22:09:00,65.8,65.0,29.95,SSW,203,0.0,0.0,96,0.00,,,0.00,weatherlink.com 1.10,2013-07-22 02:09:00,
2013-07-21 22:24:00,65.6,65.0,29.95,SSW,203,0.0,0.0,96,0.00,,,0.00,weatherlink.com 1.10,2013-07-22 02:24:00,
2013-07-21 22:39:00,65.3,64.0,29.95,SSW,203,0.0,0.0,96,0.00,,,0.00,weatherlink.com 1.10,2013-07-22 02:39:00,
2013-07-21 22:54:00,65.2,64.0,29.95,SSW,203,0.0,0.0,97,0.00,,,0.00,weatherlink.com 1.10,2013-07-22 02:54:00,
2013-07-21 23:09:00,64.9,64.0,29.95,SSW,203,0.0,0.0,97,0.00,,,0.00,weatherlink.com 1.10,2013-07-22 03:09:00,
2013-07-21 23:24:00,64.6,64.0,29.95,SSW,203,0.0,0.0,97,0.00,,,0.00,weatherlink.com 1.10,2013-07-22 03:24:00,
2013-07-21 23:39:00,64.3,64.0,29.96,SSW,203,0.0,0.0,98,0.00,,,0.00,weatherlink.com 1.10,2013-07-22 03:39:00,
2013-07-21 23:54:00,64.2,64.0,29.96,SSW,203,0.0,0.0,98,0.00,,,0.00,weatherlink.com 1.10,2013-07-22 03:54:00,